User: anonymous   Login
Location: Unspecified
(0.0000°N, 0.0000°E)
Time: 23:25:38
(UTC+02:00)
Language:

Cosmos 1626 Rocket - Orbit

View from above orbital plane
View from above orbital plane
View from above satellite
View from above satellite

Ground track
Ground track

The orbit data is extracted from the following two-line orbital elements,

1 15495U 85009B   17263.93768520 +.00000084 +00000-0 +72374-5 0  9995
2 15495 082.5216 097.7908 0020603 018.5790 341.6173 14.83780824743072
Epoch (UTC): 20 September 2017 22:30:16
Eccentricity: 0.0020603
inclination: 82.5216°
perigee height: 603 km
apogee height: 632 km
right ascension of ascending node: 97.7908°
argument of perigee: 18.5790°
revolutions per day: 14.83780824
mean anomaly at epoch: 341.6173°
orbit number at epoch: 74307

The dashed part of the orbit path shows where the satellite is in the earth's shadow,  

DLR